Location: Breux
(46.3269°N, 3.2993°E)
Time: 01:14:53
(UTC+00:00)

Terra - Pass Details

Date: 09 April 2020
Orbit: 701 x 703 km, 98.2° (Epoch: 29 May)

Event Time Altitude Azimuth Distance (km) Brightness Sun altitude
Exits shadow 22:08:19 41° 308° (NW) 1,018 2.9 -31.3°
Drops below altitude 10° 22:11:45 10° 337° (NNW) 2,182 5.2 -31.6°
Sets 22:14:05 0° 343° (NNW) 3,105 6.2 -31.7°
